Flag for U.S.A. Weather past 2 weeks in Hereford, Texas, U.S.A.

Now
66 °F

Scattered clouds.


Feels Like: 66 °F
Forecast: 33 / 69 °F
Wind: 18 mph from West

Location: Clovis Municipal

Current Time: Apr 18, 2015 at 3:07:13 PM

Latest Report: Apr 18, 2015 at 2:35 PM


Visibility: 10 mi

Pressure: 29.87 "Hg

Humidity: 24%

Dew point: 28 °F

Location of HerefordLocation

Historic Weather in Hereford — Graph

°F

Hereford temperature yesterday

Maximum temperature yesterday: 68 °F (at 5:35 PM)
Minimum temperature yesterday: 37 °F (at 7:35 AM)
Average temperature yesterday: 54 °F

Past Weeks' High & Low Weather Summary

 TemperatureHumidityPressure
High84 °F (Apr 8, 3:35 PM)94% (Apr 12, 5:15 AM)30.40 "Hg (Apr 12, 5:15 AM)
Low32 °F (Apr 4, 7:35 AM)11% (Apr 7, 7:15 PM)29.66 "Hg (Apr 8, 6:15 PM)
Average56 °F43%29.99 "Hg
* Reported Apr 3 1:15 PM — Apr 18 1:55 PM, Hereford, Weather by CustomWeather, © 2015

Note: Actual official high and low records may vary slightly from our data, if they occured in-between our weather recording intervals... More about our weather records

Advertising

Hereford weather history for previous 24 hours

 ConditionsComfort  
Time TempWeatherWind HumidityBarometerVisibility
1:55 PM
Sat, Apr 18
66 °FScattered clouds.21 mph21%29.87 "Hg10 mi
1:35 PM66 °FScattered clouds.22 mph21%29.88 "Hg10 mi
1:15 PM66 °FPartly sunny.23 mph21%29.89 "Hg10 mi
12:55 PM64 °FPartly sunny.24 mph22%29.91 "Hg10 mi
12:35 PM66 °FPartly sunny.26 mph22%29.91 "Hg10 mi
12:15 PM64 °FSunny.13 mph26%29.92 "Hg10 mi
11:55 AM64 °FSunny.17 mph26%29.93 "Hg10 mi
11:35 AM63 °FSunny.16 mph25%29.94 "Hg10 mi
11:15 AM63 °FSunny.14 mph25%29.94 "Hg10 mi
10:55 AM61 °FSunny.13 mph27%29.95 "Hg10 mi
10:35 AM57 °FSunny.8 mph33%29.95 "Hg10 mi
10:15 AM55 °FSunny.8 mph33%29.96 "Hg10 mi
9:55 AM54 °FSunny.8 mph33%29.96 "Hg10 mi
9:35 AM52 °FSunny.7 mph35%29.97 "Hg10 mi
9:15 AM48 °FSunny.6 mph40%29.97 "Hg10 mi
8:55 AM46 °FSunny.3 mph46%29.97 "Hg10 mi
8:35 AM43 °FSunny.5 mph53%29.97 "Hg10 mi
8:15 AM37 °FClear.5 mph60%29.97 "Hg10 mi
7:55 AM34 °FClear.6 mph70%29.97 "Hg10 mi
7:35 AM34 °FClear.6 mph60%29.96 "Hg10 mi
7:15 AM34 °FClear.6 mph60%29.96 "Hg10 mi
6:55 AM34 °FClear.3 mph60%29.97 "Hg10 mi
6:35 AM34 °FClear.No wind60%29.97 "Hg10 mi
6:15 AM34 °FClear.5 mph60%29.97 "Hg10 mi
5:55 AM34 °FClear.6 mph60%29.97 "Hg10 mi
5:35 AM34 °FClear.6 mph56%29.97 "Hg10 mi
5:15 AM36 °FClear.8 mph56%29.97 "Hg10 mi
4:55 AM37 °FClear.12 mph52%29.97 "Hg10 mi
4:35 AM37 °FClear.7 mph52%29.98 "Hg10 mi
4:15 AM39 °FClear.8 mph45%29.98 "Hg10 mi
3:55 AM41 °FClear.8 mph42%29.98 "Hg10 mi
3:35 AM39 °FClear.6 mph45%29.98 "Hg10 mi
3:15 AM37 °FClear.6 mph48%29.98 "Hg10 mi
2:55 AM43 °FClear.8 mph39%29.99 "Hg10 mi
2:35 AM43 °FClear.10 mph39%29.99 "Hg10 mi
2:15 AM43 °FClear.8 mph36%29.99 "Hg10 mi
1:55 AM45 °FClear.12 mph34%29.99 "Hg10 mi
1:35 AM45 °FClear.10 mph34%29.99 "Hg10 mi
1:15 AM39 °FClear.10 mph45%29.99 "Hg10 mi
12:55 AM39 °FClear.7 mph42%29.99 "Hg10 mi
12:15 AM45 °FClear.9 mph34%29.99 "Hg10 mi
11:55 PM
Fri, Apr 17
46 °FClear.7 mph32%29.99 "Hg10 mi
11:35 PM45 °FClear.9 mph34%29.99 "Hg10 mi
11:15 PM46 °FClear.10 mph32%29.99 "Hg10 mi
10:15 PM48 °FClear.8 mph32%29.99 "Hg10 mi
9:55 PM48 °FClear.8 mph32%29.97 "Hg10 mi
9:35 PM52 °FClear.7 mph28%29.97 "Hg10 mi
9:15 PM52 °FSunny.8 mph28%29.95 "Hg10 mi
8:55 PM54 °FSunny.9 mph26%29.94 "Hg10 mi
8:35 PM57 °FSunny.7 mph21%29.93 "Hg10 mi
8:15 PM59 °FSunny.9 mph18%29.92 "Hg10 mi
7:55 PM63 °FSunny.13 mph15%29.92 "Hg10 mi
7:35 PM64 °FSunny.14 mph14%29.92 "Hg10 mi
7:15 PM64 °FSunny.14 mph13%29.92 "Hg10 mi
6:55 PM66 °FSunny.18 mph13%29.92 "Hg10 mi
6:35 PM66 °FSunny.15 mph13%29.92 "Hg10 mi
6:15 PM66 °FSunny.20 mph13%29.92 "Hg10 mi
5:55 PM68 °FSunny.13 mph13%29.92 "Hg10 mi
5:35 PM68 °FMild.21 mph13%29.92 "Hg10 mi
5:15 PM66 °FMild.17 mph14%29.92 "Hg10 mi
4:55 PM66 °FMild.21 mph14%29.92 "Hg10 mi
4:35 PM66 °FMild.14 mph14%29.93 "Hg10 mi
4:15 PM66 °FMild.18 mph14%29.93 "Hg10 mi
3:55 PM66 °FMild.10 mph13%29.95 "Hg10 mi
3:35 PM66 °FSunny.14 mph13%29.95 "Hg10 mi
3:15 PM66 °FSunny.20 mph13%29.96 "Hg10 mi
Weather by CustomWeather, © 2015

See weather overviewHow to use our weather pages